[[{"header":{"parameterUnit":"m.s-1","parameterCategory":1,"la1":30.2991,"la2":30.254,"lo1":-89.0895,"lo2":-89.0444,"dy":0.0017,"dx":0.0017,"nx":28,"ny":28,"refTime":"2025-04-06T09:00:00:Z","depth":0,"parameterNumber":2,"parameterNumberName":"U-component_of_WINDS"},"data":[0,0,0,0,0,0,0,0,0,0,0,0,0,0,0,0,0,0,0,0,0,0,0,0,0,0,0,0,0,0,0,0,0,0,0,0,0,0,0,0,0,0,0,0,0,0,0,0,0,0,0,0,0,0,0,0,0,0,2.9461,2.9459,0,2.9294,2.9292,2.929,2.9143,2.9141,2.9139,2.9138,2.8966,2.8963,2.896,0,0,0,0,0,0,0,0,0,0,0,0,0,2.9652,2.965,2.9461,2.9459,2.9457,2.9294,2.9292,2.9289,2.9143,2.9141,2.9139,2.9137,2.8967,2.8963,2.896,0,0,0,0,0,0,0,0,0,0,0,0,0,2.9536,2.9649,2.9461,2.9364,2.9354,2.9294,2.9291,2.9289,2.9143,2.9141,2.9138,2.9136,2.8968,2.8964,2.8959,2.8982,0,0,2.8945,2.8944,0,0,0,0,0,0,0,0,2.9542,2.9529,2.938,2.9371,2.9359,2.9236,2.9296,2.9186,2.9144,2.9223,2.9138,2.9135,2.9058,2.9046,2.902,2.8974,2.8967,2.8945,2.8942,2.894,2.8939,0,0,0,0,0,0,0,2.9551,2.9535,2.9394,2.9378,2.9365,2.9328,2.9309,2.9274,2.9157,2.9216,2.9205,2.9187,2.9051,2.9025,2.9015,2.8964,2.8945,2.8941,2.8938,2.8937,2.8929,2.8931,0,0,0,0,0,0,2.9574,2.9543,2.94,2.9389,2.9446,2.9327,2.9305,2.9278,2.9157,2.9136,2.919,2.9181,2.9034,2.902,2.9008,2.9026,2.894,2.8936,2.8934,2.8926,2.8929,2.8932,0,0,0,0,0,0,2.9579,2.9562,2.9406,2.9463,2.944,2.9327,2.9297,2.9276,2.9249,2.9137,2.9115,2.9184,2.9031,2.9015,2.899,2.9019,2.8934,2.893,2.8923,2.8927,2.8931,2.9064,0,0,0,0,0,0,2.9585,2.9565,2.9573,2.9464,2.9438,2.9391,2.9299,2.9275,2.9242,2.9229,2.9126,2.9106,2.9028,2.8997,2.8985,2.9011,2.8927,2.892,2.8925,2.8929,2.9057,2.9072,2.9085,0,0,0,0,0,2.9592,2.9617,2.9574,2.9557,2.9445,2.9393,2.9378,2.9288,2.9245,2.9252,2.9179,2.9109,2.9018,2.8996,2.8981,2.9006,2.8918,2.8924,2.8929,2.905,2.9069,2.9085,0,0,0,0,0,0,2.9731,2.9601,2.9552,2.9542,2.948,2.9369,2.9374,2.9311,2.9259,2.9249,2.9139,2.9117,2.9104,2.9053,2.9031,2.9022,2.8958,2.8961,2.9056,2.9073,2.9087,2.9099,2.8923,0,0,0,0,0,2.9761,2.973,2.9618,2.962,2.9591,2.9489,2.9463,2.9399,2.933,2.9302,2.9228,2.9164,2.912,2.9094,2.9047,2.9049,2.9024,2.9059,2.9073,2.9086,2.9089,2.9085,2.9099,2.895,2.895,2.895,0,0,2.9821,2.9746,2.9733,2.9646,2.959,2.956,2.9467,2.944,2.9416,2.9298,2.927,2.9214,2.9134,2.9123,2.9114,2.9079,2.9125,2.9093,2.9103,2.91,2.9092,2.9107,2.9119,2.8954,2.8953,2.8953,0,0,2.9916,2.9857,2.9852,2.9799,2.9716,2.9647,2.9647,2.9545,2.9503,2.9473,2.9384,2.9355,2.9282,2.9229,2.9193,2.9269,2.9203,2.9258,2.9331,2.9329,2.9341,2.9351,2.9377,2.9388,2.9262,2.9262,2.9262,0,3.0001,2.9953,2.9858,2.9835,2.9799,2.9692,2.9686,2.9639,2.9545,2.9523,2.9486,2.9392,2.9332,2.9306,2.9325,2.9299,2.9294,2.9268,2.9347,2.9356,2.9364,2.9387,2.9398,2.9269,2.9268,2.9267,2.9267,0,3.0062,3.003,3.0036,2.9949,2.9914,2.99,2.9803,2.9779,2.9718,2.9654,2.9625,2.9549,2.9485,2.9475,2.9415,2.9441,2.9421,2.9368,2.9301,2.9387,2.9407,2.9415,2.9279,2.9277,2.9274,2.9273,0,0,3.0237,3.0099,3.0103,3.0062,2.9963,2.9936,2.9918,2.9856,2.9837,2.9777,2.9758,2.97,2.9649,2.9608,2.9542,2.9541,2.9605,2.9486,2.9483,2.951,2.9627,2.9668,2.968,2.9561,2.9563,2.9564,2.9634,0,3.0315,3.0276,3.019,3.0178,3.0147,3.0045,3.0029,2.9967,2.9907,2.9871,2.9805,2.9765,2.9702,2.9676,2.967,2.9599,2.9627,2.9593,2.9542,2.9541,2.9563,2.9691,2.9733,2.9802,2.9641,2.9642,2.9643,0,3.04,3.0346,3.0331,3.0234,3.0218,3.0205,3.0142,3.011,3.0037,2.9993,2.9949,2.9876,2.9851,2.9792,2.9755,2.9734,2.9708,2.967,2.967,2.9661,2.9596,2.9683,2.9822,2.9833,2.9655,2.9654,2.9653,0,3.0528,3.0452,3.0433,3.0401,3.0289,3.0282,3.0235,3.0159,3.0128,3.0073,3.0051,2.9994,2.9962,2.9919,2.9833,2.9798,2.9806,2.974,2.9768,2.977,2.9772,2.9773,2.9908,2.976,2.9759,2.9759,2.9759,0,3.0623,3.0617,3.0489,3.0477,3.0468,3.037,3.0363,3.0307,3.0241,3.0216,3.0125,3.0104,2.9992,2.9957,2.989,2.9869,2.9856,2.9819,2.9801,2.9826,2.9831,2.9807,2.9799,2.9762,2.9761,2.9761,2.976,0,3.0764,3.0678,3.065,3.0546,3.052,3.0518,3.0428,3.0413,3.0348,3.0318,3.0305,3.0203,3.0158,3.0068,2.9998,2.9952,2.9947,2.9916,2.9971,2.996,2.9992,2.999,3.0115,3.0126,2.9973,2.9975,2.9976,0,3.0829,3.0822,3.0718,3.0695,3.0651,3.0616,3.0583,3.0487,3.0457,3.0374,3.0369,3.0316,3.0269,3.0201,3.0121,3.0066,3.0032,3.008,3.0023,3.0049,3.0031,3.0032,3.003,3.0092,3.0095,3.0096,3.0098,0,3.0953,3.0911,3.0868,3.0811,3.0775,3.0725,3.067,3.0657,3.0547,3.0518,3.0471,3.0435,3.0363,3.0312,3.0246,3.0196,3.0129,3.0117,3.012,3.0145,3.0176,3.0158,3.0004,3.0114,3.0112,3.0111,3.011,3.0109,3.1056,3.1046,3.0971,3.0926,3.0875,3.0826,3.0807,3.074,3.0699,3.0634,3.058,3.0537,3.0464,3.0369,3.0324,3.0289,3.0256,3.0261,3.0262,3.0265,3.0275,3.0184,3.0277,3.0276,3.0275,3.0275,3.0275,0,3.1175,3.1122,3.1082,3.1009,3.0974,3.0915,3.0851,3.0825,3.0789,3.0728,3.0683,3.0629,3.0579,3.0496,3.0439,3.0427,3.0394,3.0415,3.0414,3.0403,3.0308,3.031,3.0442,3.0442,3.0442,3.0442,3.0442,3.0442,3.1232,3.1211,3.1161,3.1113,3.106,3.1018,3.0986,3.094,3.0891,3.0835,3.0793,3.0739,3.0668,3.0606,3.0557,3.0534,3.0516,3.0547,3.0514,3.0426,3.041,3.0395,3.0396,3.0544,3.0545,3.0611,3.0612,3.0612]},{"header":{"parameterUnit":"m.s-1","parameterCategory":1,"la1":30.2991,"la2":30.254,"lo1":-89.0895,"lo2":-89.0444,"dy":0.0017,"dx":0.0017,"nx":28,"ny":28,"refTime":"2025-04-06T09:00:00:Z","depth":0,"parameterNumber":3,"parameterNumberName":"V-component_of_WINDS"},"data":[0,0,0,0,0,0,0,0,0,0,0,0,0,0,0,0,0,0,0,0,0,0,0,0,0,0,0,0,0,0,0,0,0,0,0,0,0,0,0,0,0,0,0,0,0,0,0,0,0,0,0,0,0,0,0,0,0,0,4.8921,4.8929,0,4.9726,4.9735,4.9744,4.9989,4.9985,4.9981,4.9977,5.0798,5.0823,5.0848,0,0,0,0,0,0,0,0,0,0,0,0,0,4.7587,4.761,4.892,4.893,4.894,4.9724,4.9735,4.9746,4.999,4.9985,4.998,4.9976,5.079,5.082,5.085,0,0,0,0,0,0,0,0,0,0,0,0,0,4.8256,4.7618,4.8918,4.9156,4.9186,4.9722,4.9736,4.9749,4.9991,4.9985,4.9979,4.9973,5.0779,5.0817,5.0855,5.1211,0,0,5.0972,5.0988,0,0,0,0,0,0,0,0,4.8218,4.8305,4.9111,4.9141,4.9175,4.9751,4.9566,5.0239,4.9992,4.9685,4.9977,4.997,5.0454,5.0519,5.0683,5.1249,5.1284,5.0975,5.0998,5.1015,5.1026,0,0,0,0,0,0,0,4.8171,4.8271,4.9239,4.9123,4.9162,4.9221,4.9309,4.9695,5.0093,4.9711,4.9731,4.9823,5.047,5.0645,5.0704,5.1296,5.0974,5.1008,5.1032,5.1047,5.2193,5.22,0,0,0,0,0,0,4.8085,4.8231,4.9213,4.9263,4.8672,4.9249,4.9349,4.9572,5.009,5.0163,4.9827,4.9832,5.0583,5.0659,5.0734,5.1186,5.1014,5.105,5.1072,5.2186,5.2195,5.2203,0,0,0,0,0,0,4.8055,4.817,4.9181,4.8753,4.8886,4.9279,4.9528,4.9591,4.9767,5.0178,5.0249,4.9934,5.0581,5.068,5.109,5.1217,5.1068,5.1103,5.2177,5.2189,5.2199,5.209,0,0,0,0,0,0,4.8016,4.8158,4.83,4.8754,4.8908,4.9526,4.9536,4.9611,4.9832,4.9846,5.0296,5.0365,5.0584,5.1032,5.1128,5.1267,5.1132,5.2167,5.2182,5.2195,5.2084,5.2096,5.2106,0,0,0,0,0,4.7968,4.8236,4.8306,4.8423,4.9093,4.9532,4.962,4.9868,4.9841,4.9986,5.0249,5.0351,5.1186,5.1072,5.1183,5.1335,5.2161,5.2178,5.2194,5.2079,5.2093,5.2106,0,0,0,0,0,0,4.7786,4.83,4.8383,4.8807,4.9124,4.9573,4.9763,4.9875,5.0206,5.0204,5.0496,5.0595,5.0984,5.12,5.1063,5.1705,5.1677,5.1716,5.1551,5.1569,5.1579,5.152,5.1164,0,0,0,0,0,4.7795,4.8111,4.8542,4.8875,4.903,4.9367,4.9568,4.9731,5.0071,5.0206,5.05,5.0824,5.116,5.1376,5.1707,5.2114,5.2216,5.2273,5.2284,5.2291,5.2323,5.2553,5.2584,5.2258,5.2258,5.2257,0,0,4.7818,4.8137,4.8319,4.8846,4.9111,4.943,4.948,4.9815,5.0054,5.0257,5.0664,5.0889,5.127,5.168,5.1875,5.1872,5.2434,5.2312,5.2315,5.2345,5.2573,5.2604,5.2631,5.2269,5.2267,5.2265,0,0,4.8022,4.8296,4.8603,4.8867,4.9268,4.949,4.9562,4.9995,5.0153,5.0565,5.0724,5.101,5.1582,5.1848,5.2057,5.2355,5.2461,5.2455,5.2514,5.2735,5.2761,5.2785,5.2893,5.2928,5.2484,5.2484,5.2484,0,4.8,4.8489,4.8746,4.9075,4.93,4.9498,4.981,5.0053,5.0539,5.069,5.0679,5.1401,5.1671,5.2145,5.2217,5.238,5.2471,5.2407,5.2736,5.2763,5.279,5.2896,5.2935,5.2481,5.2481,5.2482,5.2482,0,4.8441,4.8777,4.8976,4.9443,4.9691,5.0008,5.0311,5.0531,5.0669,5.0892,5.1307,5.1637,5.2039,5.2162,5.2302,5.2656,5.2642,5.2679,5.2658,5.2813,5.2918,5.296,5.2476,5.2477,5.2478,5.2479,0,0,4.856,4.9162,4.9231,4.9444,4.9898,5.0162,5.0485,5.0879,5.1062,5.1388,5.1668,5.2145,5.2182,5.2419,5.2589,5.2782,5.2998,5.2798,5.2811,5.2824,5.3408,5.3379,5.3422,5.3068,5.3077,5.3084,5.3377,0,4.8824,4.9416,4.9654,5.0132,5.0445,5.0634,5.0917,5.1223,5.1438,5.1732,5.1969,5.2303,5.2327,5.2471,5.267,5.2929,5.3119,5.291,5.3331,5.3342,5.3233,5.3477,5.3449,5.3709,5.3419,5.3426,5.3431,0,4.9213,4.9545,5.0054,5.0468,5.0608,5.0858,5.1236,5.1515,5.1866,5.2008,5.227,5.2428,5.2773,5.2724,5.3202,5.3055,5.3239,5.3391,5.3407,5.346,5.3399,5.3537,5.3799,5.3838,5.3498,5.3493,5.3488,0,4.925,4.9822,5.0202,5.0378,5.087,5.1041,5.1253,5.1598,5.1818,5.2147,5.2293,5.2656,5.2856,5.3132,5.3383,5.3325,5.3838,5.381,5.3966,5.3959,5.4069,5.406,5.4366,5.4181,5.4181,5.418,5.4179,0,4.9522,4.9827,5.0225,5.0458,5.0804,5.1072,5.1406,5.1631,5.1935,5.2214,5.2397,5.2654,5.2968,5.3264,5.3462,5.3828,5.3916,5.404,5.4089,5.4026,5.401,5.4154,5.4144,5.4191,5.4188,5.4186,5.4184,0,4.9624,4.9903,5.0329,5.0759,5.0873,5.1109,5.1476,5.1708,5.1929,5.2279,5.2376,5.2723,5.3081,5.3357,5.3822,5.3954,5.4342,5.4394,5.4224,5.4251,5.4392,5.4375,5.4805,5.4875,5.4637,5.4639,5.4641,0,4.9782,5.0021,5.0475,5.0676,5.0887,5.1207,5.1433,5.1704,5.1931,5.2346,5.2527,5.2897,5.321,5.3771,5.4064,5.4419,5.4483,5.4609,5.4538,5.4466,5.4488,5.4472,5.4497,5.4618,5.462,5.4621,5.4622,0,5.0031,5.0157,5.0476,5.0844,5.1107,5.1409,5.1714,5.1867,5.2192,5.2437,5.2806,5.3047,5.3521,5.3886,5.4271,5.4488,5.461,5.464,5.4696,5.4636,5.4529,5.459,5.4252,5.4631,5.463,5.4629,5.4629,5.4628,5.0169,5.039,5.0744,5.1093,5.135,5.163,5.187,5.2119,5.2432,5.2841,5.298,5.3359,5.3701,5.4231,5.4449,5.4748,5.4754,5.4833,5.4854,5.487,5.4865,5.4476,5.4819,5.4819,5.4819,5.4819,5.4819,0,5.043,5.0667,5.0984,5.1406,5.1679,5.1768,5.2109,5.2331,5.2664,5.2972,5.3274,5.3696,5.405,5.4368,5.4736,5.4915,5.4979,5.5002,5.4994,5.5042,5.4839,5.4755,5.4944,5.4944,5.4944,5.4944,5.4944,5.4944,5.0599,5.0977,5.1143,5.165,5.1884,5.2259,5.2446,5.2704,5.2952,5.3415,5.3711,5.3915,5.4228,5.462,5.4947,5.5032,5.516,5.5169,5.5267,5.5072,5.5056,5.5041,5.4964,5.5194,5.5194,5.5447,5.5449,5.545]}]]